Theta_e
318 313 311 310 308 309 309 309 309 310 310 311 314 314 313 315 316 317 315 313 314 316 312 314 315 316 316 321 320 320 324 323 320 319 319 317 316 316 315 315 313 313 312 309 308
320 314 312 311 309 309 309 310 310 311 311 311 313 315 314 316 318 316 313 315 314 315 313 314 316 316 319 319 320 321 325 321 317 316 317 315 315 314 314 314 313 313 309 309 306
321 316 313 312 310 309 309 311 311 312 311 311 313 315 313 313 321 316 314 315 313 312 312 313 315 318 320 319 319 320 320 317 317 317 315 315 315 314 314 314 312 311 307 307 305
321 319 314 313 311 310 310 312 312 313 312 311 314 314 315 315 322 314 314 314 313 313 314 315 317 318 318 320 318 317 318 318 318 315 314 314 313 314 313 313 310 307 306 305 303
320 321 316 314 312 311 311 312 314 315 312 312 316 315 314 321 317 312 315 313 312 313 314 315 316 317 318 318 317 318 317 315 315 314 313 312 313 313 313 310 308 307 306 303 303
318 321 317 314 313 312 313 313 315 315 312 313 316 315 319 321 313 315 313 313 311 312 314 314 314 315 316 318 317 317 316 314 314 314 313 313 312 312 313 309 307 306 304 303 302
316 321 318 315 313 313 314 315 316 316 312 316 315 317 320 317 312 314 313 312 310 310 314 311 311 314 317 318 314 314 314 314 313 314 313 313 313 312 312 310 307 305 303 302 301
314 319 319 314 313 312 314 317 319 315 312 316 316 318 320 313 314 315 312 313 311 310 311 309 310 313 315 314 315 315 316 319 315 314 312 313 313 312 312 308 308 304 302 302 302
314 317 318 313 312 311 314 319 320 315 314 315 319 317 319 314 317 314 313 311 311 311 310 309 311 315 314 317 316 318 316 313 316 312 313 312 313 313 312 308 306 302 300 299 300
316 317 318 312 311 310 314 321 317 315 315 316 317 320 316 319 316 312 312 310 312 313 315 314 315 315 315 314 312 312 311 312 314 314 313 312 312 310 309 308 304 300 298 297 297
318 318 318 311 308 307 312 315 315 320 314 317 317 317 317 317 312 313 310 311 313 314 319 319 315 318 317 312 311 312 313 313 313 312 310 310 309 307 307 306 302 298 297 296 296
320 319 319 310 306 307 310 313 312 312 314 314 315 315 316 314 315 313 311 313 314 317 318 318 319 313 312 311 314 313 311 311 310 312 309 309 309 308 306 305 302 298 297 297 294
320 320 319 309 306 310 309 309 309 312 317 317 315 317 316 313 314 313 311 312 315 317 317 315 317 311 311 312 311 310 310 310 311 309 307 307 306 307 302 301 299 298 297 295 293
320 319 319 311 310 306 312 306 311 310 318 319 315 316 311 311 314 310 308 311 316 318 313 312 310 312 312 312 309 310 306 307 308 307 306 305 305 306 300 299 298 297 294 293 292
319 319 319 308 303 311 308 305 308 312 324 317 316 310 312 313 312 313 308 310 314 315 312 314 309 308 309 309 310 310 305 305 305 305 304 304 304 304 302 300 298 295 294 293 293
318 319 318 311 306 308 305 308 310 320 323 319 317 317 315 312 313 312 312 308 309 308 309 310 308 308 308 311 309 306 306 306 305 303 306 305 305 306 304 305 296 295 292 293 293
317 318 317 316 310 306 306 314 319 323 319 319 318 316 316 316 316 314 315 312 313 316 316 312 308 308 307 308 308 307 305 307 310 308 309 302 301 303 298 296 295 293 292 292 291
316 317 316 316 312 303 313 313 321 321 322 314 315 314 316 317 316 313 312 312 313 312 311 311 313 309 306 307 304 305 304 305 306 310 308 300 301 303 297 295 294 293 293 292 290
318 317 313 315 310 304 311 316 316 318 319 318 314 317 320 314 313 310 310 313 315 309 310 313 311 301 299 301 302 305 302 300 302 294 298 299 301 299 296 295 294 293 292 291 290
318 313 314 312 306 311 308 315 316 317 313 314 319 319 320 318 312 314 315 313 310 308 307 308 309 304 297 298 297 298 299 300 299 297 301 303 302 302 295 295 293 292 291 291 291
315 313 311 309 307 309 306 310 313 314 314 315 318 319 318 318 318 317 316 312 307 304 304 305 305 303 299 298 299 295 296 296 297 301 301 299 301 296 295 294 293 292 292 290 290
309 317 308 308 311 310 312 312 312 312 311 313 312 315 317 317 318 317 316 315 304 301 302 303 304 303 302 295 295 295 297 296 296 298 296 298 297 298 297 293 293 292 291 291 290
309 314 308 310 313 313 313 313 312 313 312 310 312 313 314 315 315 315 315 301 302 301 302 297 301 306 307 296 294 293 293 294 295 295 296 300 299 294 294 293 293 291 290 290 289
314 313 310 308 310 313 314 314 313 309 310 309 311 312 312 312 312 313 312 300 300 301 297 299 299 307 317 310 297 295 293 293 294 295 296 296 296 297 296 295 293 289 289 289 288
312 314 311 311 311 311 313 314 315 315 310 310 311 311 312 314 313 313 311 298 297 297 296 297 301 301 301 298 298 297 295 293 293 293 295 297 296 297 297 293 291 290 290 289 288
313 313 308 313 311 311 313 315 316 316 316 314 314 313 310 312 314 314 312 309 302 295 296 297 301 302 301 298 295 295 294 294 295 294 294 294 295 295 296 293 289 290 289 288 288
312 312 312 314 314 315 315 314 315 314 315 316 316 315 312 312 308 303 304 305 303 299 299 300 299 298 303 296 297 297 296 294 295 294 294 294 294 294 293 291 290 289 288 288 285
Wind_Speed
22 24 26 28 29 29 29 29 28 29 29 21 20 9 5 6 8 7 7 8 12 11 9 12 8 1 4 3 3 2 2 4 3 4 4 4 8 7 2 1 9 7 14 15 24
22 23 25 27 29 29 29 29 28 29 27 20 19 6 9 5 6 11 8 13 10 8 6 10 8 11 3 2 2 2 2 5 7 7 7 9 8 6 5 9 7 6 17 23 24
22 23 25 27 28 29 28 28 28 30 27 19 18 7 9 3 3 2 10 11 11 8 4 4 7 4 4 2 2 2 2 5 6 8 8 5 4 3 4 7 3 8 10 12 20
22 24 25 27 28 29 28 28 28 31 24 17 18 4 3 4 1 2 11 10 11 10 7 7 6 3 3 1 5 3 4 3 4 6 5 5 5 3 9 5 13 13 10 13 11
21 23 25 27 29 29 28 28 29 30 23 18 14 1 2 4 4 6 10 10 8 9 10 6 6 5 4 3 3 7 3 1 1 3 2 4 5 3 7 9 14 13 12 10 10
21 23 25 27 29 29 29 27 29 28 21 16 7 1 2 4 2 7 10 6 12 10 8 7 4 4 5 4 1 3 4 8 2 3 3 5 3 3 6 10 12 10 10 9 10
21 23 24 26 28 28 28 27 29 25 18 12 3 2 2 2 2 7 10 5 8 7 3 3 2 3 3 5 3 4 4 6 6 5 4 3 3 6 6 6 13 10 9 8 10
19 21 23 25 28 28 28 26 29 22 11 7 3 1 1 1 1 5 6 1 6 4 1 1 0 4 3 4 3 4 2 4 9 8 7 4 4 4 9 8 11 10 7 7 8
18 20 22 24 26 28 27 27 23 17 8 3 1 1 1 0 1 5 7 2 8 5 2 1 2 3 2 3 3 5 3 8 2 10 5 5 5 6 4 9 10 8 8 7 7
16 19 20 22 25 26 25 24 17 6 7 3 1 2 2 1 3 6 5 4 3 7 4 4 4 4 4 2 2 4 6 5 6 1 1 7 10 6 3 11 10 9 8 7 8
15 18 19 20 22 20 23 10 7 1 10 5 4 4 2 5 4 2 5 5 5 4 6 3 1 7 5 5 3 5 7 10 10 2 1 7 8 10 8 10 10 8 8 6 6
13 17 18 17 19 15 11 5 3 1 8 4 3 4 4 1 2 2 6 2 4 6 9 5 7 4 2 3 4 6 9 11 6 4 5 10 14 17 12 10 9 9 7 5 6
11 15 18 15 14 8 8 5 1 1 4 2 3 3 2 3 2 2 7 1 2 4 7 4 8 3 3 5 6 7 8 5 5 8 10 16 12 5 7 9 8 7 6 7 7
10 13 17 14 2 8 2 7 3 2 3 3 2 2 2 2 3 2 3 2 2 5 5 8 3 2 5 6 4 4 5 4 8 5 4 7 7 4 12 9 8 8 7 7 6
10 11 13 11 7 4 3 6 3 1 5 1 3 1 2 3 1 1 2 1 3 6 3 8 2 3 5 4 3 3 2 6 10 12 10 10 5 6 18 12 10 8 7 6 5
11 10 12 5 5 5 4 3 2 1 8 2 3 3 3 5 4 4 2 2 2 3 7 13 6 3 2 2 2 7 6 9 13 7 4 5 9 5 13 17 9 7 7 5 4
11 11 10 7 3 3 2 2 3 4 1 3 2 3 1 4 4 3 2 3 4 5 3 1 11 4 1 3 5 3 4 4 5 1 6 5 5 8 6 8 10 7 5 4 4
12 12 11 10 10 4 0 3 7 6 7 3 2 1 4 3 4 3 2 3 9 5 4 4 4 7 6 1 2 2 1 4 6 3 5 8 7 4 11 10 9 7 6 5 7
13 11 6 11 10 7 2 6 6 7 1 6 2 5 6 2 2 1 8 6 2 10 8 4 4 4 4 3 1 5 4 2 1 2 2 5 5 3 10 9 7 5 6 6 6
9 4 12 11 9 7 4 14 9 6 5 1 7 8 6 6 6 6 7 3 5 5 3 4 7 2 3 2 2 1 5 4 1 3 6 5 8 6 8 8 5 5 4 4 5
9 3 7 12 12 3 8 10 12 17 5 7 7 12 13 10 7 6 7 5 8 4 4 1 4 2 4 7 8 4 4 4 0 4 5 4 5 5 7 6 3 1 2 4 7
9 4 12 19 4 4 12 8 15 18 3 6 1 11 14 9 10 9 8 8 11 10 8 6 3 5 7 4 4 2 6 9 5 5 4 2 12 4 4 9 6 2 5 4 6
3 5 8 8 6 12 8 11 16 16 7 8 10 11 6 7 6 10 11 5 10 9 8 7 4 3 6 2 1 5 6 5 5 2 14 6 9 5 6 8 3 6 3 5 8
4 4 3 3 6 11 15 21 21 8 10 13 7 7 7 10 7 6 7 2 2 4 4 6 5 11 20 6 5 5 8 11 13 10 22 24 30 13 10 11 5 6 6 7 9
5 6 8 6 9 19 19 8 16 17 12 14 9 21 19 12 10 17 10 4 3 4 4 4 10 10 19 15 8 11 9 14 19 25 18 35 23 22 13 6 3 3 6 9 11
6 5 1 7 12 21 24 22 28 22 13 7 24 17 12 22 23 9 12 8 7 7 7 1 5 5 16 9 10 18 17 18 24 27 25 28 32 20 17 8 4 4 6 8 10
22 8 4 9 16 18 21 26 27 19 18 29 22 13 17 19 6 4 2 2 7 12 11 7 5 4 6 4 7 15 24 27 27 21 23 22 30 14 10 3 1 3 5 6 8
Wind_Direction
7 7 8 9 7 6 6 4 3 6 7 11 12 14 106 78 70 50 49 341 327 336 350 328 269 261 258 152 304 299 290 259 54 23 30 125 32 30 112 212 57 79 75 73 52
3 4 4 5 4 3 3 1 360 0 3 7 7 9 142 104 115 67 9 352 356 354 42 2 359 335 234 163 194 275 308 13 16 23 14 15 20 19 353 62 45 36 66 64 57
359 359 1 0 1 0 359 358 355 356 360 5 359 352 214 260 290 63 354 358 15 13 358 309 282 262 286 111 118 2 283 13 36 35 21 345 354 349 305 71 21 83 73 65 63
355 355 357 357 357 357 357 354 353 353 356 3 354 355 159 167 257 353 348 5 17 21 339 353 299 327 304 254 107 295 47 17 40 53 5 342 313 350 72 94 74 80 78 66 55
351 352 352 353 353 353 354 351 349 350 353 357 354 195 184 210 75 336 353 14 27 27 31 354 14 348 308 4 347 198 113 206 224 309 9 325 247 73 116 66 92 85 72 68 58
345 349 350 351 350 350 350 348 345 345 349 350 359 134 287 248 55 347 1 17 26 27 36 20 14 354 273 291 275 9 307 272 145 124 121 340 315 147 134 100 95 92 90 82 74
342 346 347 348 348 347 346 344 339 339 345 348 14 23 261 88 45 23 4 26 20 19 5 62 344 266 4 242 34 289 296 125 176 180 157 264 257 202 125 116 125 113 107 94 80
337 342 344 345 346 344 343 340 331 334 343 353 32 335 10 202 124 358 22 296 357 343 32 337 302 283 257 20 216 248 216 197 172 190 169 142 253 57 179 119 117 105 95 67 76
333 338 342 343 345 343 342 339 323 332 359 4 351 359 171 136 322 339 354 5 313 274 244 242 205 275 137 223 251 211 326 329 308 195 156 192 265 245 289 120 121 114 83 59 44
333 336 340 341 344 344 345 339 321 330 346 340 313 258 126 54 304 321 323 348 298 294 193 227 204 215 229 18 311 329 312 302 281 178 94 271 252 289 281 130 135 125 98 72 54
333 339 339 340 343 347 352 355 355 259 13 268 310 264 70 309 293 221 326 320 216 222 330 296 325 294 42 55 320 261 259 271 280 81 75 248 275 260 137 127 131 122 108 89 73
331 339 339 340 342 346 17 53 67 272 309 200 286 289 261 300 264 139 340 320 0 323 320 323 272 60 25 268 237 262 264 272 291 120 3 270 264 278 153 158 151 123 113 103 44
325 334 338 337 340 6 44 61 29 45 269 247 197 260 116 185 342 59 332 158 337 321 343 299 279 33 278 291 283 280 276 302 283 321 265 275 276 175 100 106 113 123 150 84 46
316 330 340 337 26 348 71 349 18 79 285 218 213 135 161 301 229 5 11 49 261 299 338 268 90 27 302 273 285 277 51 321 286 316 242 52 292 124 156 159 169 147 94 56 29
308 321 340 349 318 318 300 338 13 357 318 27 146 113 90 243 107 166 342 273 240 272 99 251 219 277 271 275 98 249 356 261 259 253 286 256 250 253 162 185 170 141 103 61 33
291 307 333 349 328 268 313 344 4 243 244 164 124 159 209 184 185 146 239 214 75 294 229 248 121 211 285 103 175 331 290 273 253 252 267 236 213 232 177 191 142 126 78 54 22
269 290 311 310 291 288 339 264 271 214 225 167 208 204 271 199 180 195 214 182 237 304 244 292 217 117 166 259 152 217 296 322 336 5 228 105 337 246 140 113 129 116 82 62 14
256 276 291 274 264 246 248 222 230 253 267 87 107 154 235 126 216 139 227 261 225 237 319 270 301 159 156 215 82 157 55 160 261 271 264 21 252 236 129 130 138 95 78 45 17
247 268 257 268 232 194 222 210 212 204 277 136 123 225 213 153 229 207 211 229 242 178 195 299 241 83 21 55 91 142 199 355 318 80 346 234 269 77 138 154 142 60 35 25 1
222 225 238 232 192 167 222 227 236 204 122 103 224 225 251 203 183 192 207 189 203 189 45 343 297 96 111 116 98 248 147 81 117 297 269 258 255 233 187 184 89 28 2 358 345
193 229 173 182 152 212 216 214 235 250 189 201 234 264 262 268 238 221 241 200 162 114 68 58 212 139 130 205 175 157 208 227 345 193 216 292 249 148 142 152 140 280 8 13 3
166 224 167 152 175 208 226 216 230 262 230 247 305 257 260 262 264 234 234 223 121 134 166 197 246 249 240 78 26 309 216 174 165 239 252 245 262 327 224 164 138 63 31 1 343
199 214 185 194 211 224 240 235 236 240 208 194 234 214 185 230 254 217 238 349 133 159 174 180 216 313 282 25 66 245 209 252 242 228 230 223 253 131 143 173 117 57 8 356 342
171 218 162 224 253 243 233 236 235 199 237 216 245 210 209 232 228 266 178 152 49 163 85 152 213 214 256 276 140 215 225 214 220 232 253 236 259 248 245 273 323 18 2 2 337
197 224 176 195 215 227 235 246 232 224 213 205 240 234 238 258 228 237 256 152 154 171 184 191 242 240 259 275 277 263 249 218 217 233 229 259 246 265 265 272 330 5 2 340 333
197 194 185 241 181 207 221 230 236 239 242 203 233 232 221 236 228 239 223 185 191 166 185 240 247 235 265 266 267 266 245 242 244 240 247 256 271 259 280 275 40 351 360 330 316
212 193 215 217 216 230 215 225 234 227 238 241 245 243 235 238 252 10 12 17 164 158 174 186 203 164 251 68 330 281 237 230 243 238 237 245 250 291 262 126 49 18 333 324 333